Total_Precipitation_Accumulation
0.00 0.00 0.00 0.00 0.00 0.01 0.09 0.16 0.20 0.18 0.54 0.59 0.57 0.14 0.01 0.00 0.00 0.00 0.00 0.00 0.00 0.00 0.00 0.00 0.00 0.00 0.00 0.00 0.00 0.00 0.00 0.00 0.00 0.00 0.00 0.00 0.00 0.00 0.00 0.00 0.00 0.00 0.00 0.00
0.01 0.00 0.00 0.00 0.01 0.01 0.06 0.10 0.27 0.29 0.71 0.71 0.27 0.11 0.01 0.01 0.00 0.00 0.00 0.00 0.00 0.00 0.00 0.00 0.00 0.00 0.00 0.00 0.00 0.00 0.00 0.00 0.00 0.00 0.00 0.00 0.00 0.00 0.00 0.00 0.00 0.00 0.00 0.00
0.01 0.00 0.00 0.00 0.01 0.04 0.17 0.11 0.35 0.52 0.58 0.48 0.15 0.07 0.08 0.03 0.01 0.01 0.00 0.00 0.00 0.00 0.00 0.00 0.00 0.00 0.00 0.00 0.00 0.00 0.00 0.00 0.00 0.00 0.00 0.00 0.00 0.00 0.00 0.00 0.00 0.00 0.00 0.00
0.01 0.00 0.00 0.00 0.01 0.07 0.26 0.13 0.22 0.21 0.18 0.16 0.09 0.07 0.07 0.10 0.03 0.01 0.01 0.00 0.00 0.00 0.00 0.00 0.00 0.00 0.00 0.00 0.00 0.00 0.00 0.00 0.00 0.00 0.00 0.00 0.00 0.00 0.00 0.00 0.00 0.00 0.00 0.00
0.01 0.01 0.00 0.00 0.02 0.14 0.28 0.09 0.08 0.11 0.02 0.02 0.04 0.13 0.16 0.06 0.09 0.02 0.01 0.01 0.00 0.00 0.00 0.00 0.00 0.00 0.00 0.00 0.00 0.00 0.00 0.00 0.00 0.00 0.00 0.00 0.00 0.00 0.00 0.00 0.00 0.00 0.00 0.00
0.01 0.01 0.00 0.00 0.02 0.18 0.17 0.06 0.04 0.16 0.06 0.06 0.08 0.13 0.06 0.03 0.03 0.09 0.01 0.01 0.01 0.01 0.00 0.00 0.00 0.00 0.00 0.00 0.00 0.00 0.00 0.00 0.00 0.00 0.00 0.00 0.00 0.00 0.00 0.00 0.00 0.00 0.00 0.00
0.03 0.01 0.00 0.00 0.02 0.12 0.11 0.08 0.16 0.29 0.21 0.10 0.03 0.02 0.02 0.03 0.05 0.06 0.08 0.02 0.01 0.01 0.00 0.00 0.00 0.00 0.00 0.00 0.00 0.00 0.00 0.00 0.00 0.00 0.00 0.00 0.00 0.00 0.00 0.00 0.00 0.00 0.00 0.00
0.06 0.03 0.00 0.00 0.02 0.09 0.10 0.12 0.34 0.50 0.25 0.11 0.03 0.03 0.10 0.14 0.13 0.11 0.14 0.13 0.02 0.00 0.00 0.00 0.00 0.00 0.00 0.00 0.00 0.00 0.00 0.00 0.00 0.00 0.00 0.00 0.00 0.00 0.00 0.00 0.00 0.00 0.00 0.00
0.08 0.06 0.02 0.01 0.03 0.07 0.10 0.13 0.37 0.61 0.33 0.06 0.05 0.04 0.04 0.17 0.30 0.11 0.16 0.16 0.05 0.02 0.02 0.01 0.01 0.00 0.00 0.00 0.00 0.00 0.00 0.00 0.00 0.00 0.00 0.00 0.00 0.00 0.00 0.00 0.00 0.00 0.00 0.00
0.09 0.07 0.05 0.05 0.04 0.06 0.09 0.11 0.28 0.66 0.44 0.05 0.08 0.20 0.12 0.07 0.22 0.26 0.16 0.22 0.11 0.08 0.11 0.01 0.00 0.00 0.00 0.00 0.00 0.00 0.00 0.00 0.00 0.00 0.00 0.00 0.00 0.00 0.00 0.00 0.00 0.00 0.00 0.00
0.08 0.07 0.06 0.07 0.07 0.07 0.12 0.09 0.27 0.64 0.50 0.12 0.04 0.13 0.19 0.17 0.15 0.26 0.19 0.23 0.26 0.11 0.08 0.10 0.02 0.00 0.00 0.00 0.00 0.00 0.00 0.00 0.00 0.00 0.00 0.00 0.00 0.00 0.00 0.00 0.00 0.00 0.00 0.00
0.08 0.06 0.06 0.07 0.08 0.10 0.16 0.10 0.13 0.42 0.69 0.25 0.10 0.02 0.06 0.17 0.13 0.12 0.19 0.16 0.16 0.21 0.09 0.03 0.03 0.02 0.00 0.00 0.00 0.00 0.00 0.00 0.00 0.00 0.00 0.00 0.00 0.00 0.00 0.00 0.00 0.00 0.00 0.00
0.13 0.08 0.08 0.08 0.07 0.12 0.20 0.12 0.17 0.43 0.57 0.30 0.06 0.01 0.01 0.03 0.16 0.21 0.28 0.11 0.16 0.25 0.12 0.07 0.05 0.04 0.00 0.01 0.00 0.00 0.00 0.00 0.00 0.00 0.00 0.00 0.00 0.00 0.00 0.00 0.00 0.00 0.00 0.00
0.15 0.12 0.11 0.10 0.13 0.15 0.24 0.17 0.21 0.42 0.53 0.54 0.11 0.01 0.01 0.01 0.04 0.22 0.16 0.12 0.14 0.15 0.23 0.12 0.06 0.04 0.02 0.01 0.00 0.00 0.00 0.00 0.00 0.00 0.00 0.00 0.00 0.00 0.00 0.00 0.00 0.00 0.00 0.00
0.13 0.13 0.12 0.12 0.16 0.20 0.24 0.19 0.29 0.39 0.54 0.51 0.29 0.06 0.01 0.01 0.03 0.07 0.19 0.20 0.33 0.25 0.17 0.23 0.06 0.01 0.04 0.00 0.00 0.00 0.00 0.00 0.00 0.00 0.00 0.00 0.00 0.00 0.00 0.00 0.00 0.00 0.00 0.00
0.12 0.14 0.12 0.16 0.19 0.29 0.49 0.54 0.30 0.35 0.54 0.64 0.47 0.34 0.05 0.01 0.05 0.08 0.10 0.22 0.33 0.43 0.31 0.09 0.05 0.01 0.04 0.01 0.00 0.00 0.00 0.00 0.00 0.00 0.00 0.00 0.00 0.00 0.00 0.00 0.00 0.00 0.00 0.00
0.16 0.20 0.18 0.22 0.25 0.32 0.44 0.37 0.25 0.14 0.50 0.73 0.49 0.48 0.22 0.05 0.14 0.24 0.27 0.30 0.44 0.43 0.46 0.25 0.04 0.04 0.06 0.01 0.00 0.00 0.00 0.00 0.00 0.00 0.00 0.00 0.00 0.00 0.00 0.00 0.00 0.00 0.00 0.00
0.20 0.28 0.27 0.34 0.43 0.45 0.30 0.09 0.17 0.25 0.65 0.69 0.64 0.45 0.57 0.32 0.44 0.44 0.36 0.50 0.49 0.71 0.53 0.24 0.09 0.07 0.06 0.03 0.00 0.00 0.00 0.00 0.00 0.00 0.00 0.00 0.00 0.00 0.00 0.00 0.00 0.00 0.00 0.00
0.29 0.46 0.66 0.99 0.96 0.68 0.20 0.16 0.37 0.77 1.10 0.88 0.43 0.24 0.44 0.64 0.47 0.56 0.48 0.59 0.75 0.63 0.52 0.24 0.11 0.15 0.11 0.01 0.00 0.00 0.00 0.00 0.00 0.00 0.00 0.00 0.00 0.00 0.00 0.00 0.00 0.00 0.00 0.00
0.61 1.21 1.38 1.22 0.51 0.19 0.28 0.83 1.20 1.45 1.16 0.81 0.26 0.13 0.26 0.74 0.73 0.80 0.81 0.63 0.51 0.39 0.19 0.15 0.18 0.11 0.01 0.00 0.00 0.00 0.00 0.00 0.00 0.00 0.00 0.00 0.00 0.00 0.00 0.00 0.00 0.00 0.00 0.00
1.24 1.29 0.75 0.40 0.27 0.57 0.91 1.29 1.37 1.31 0.96 0.34 0.08 0.12 0.17 0.32 0.68 0.72 0.79 0.67 0.49 0.30 0.10 0.10 0.09 0.01 0.00 0.00 0.00 0.00 0.00 0.00 0.00 0.00 0.00 0.00 0.00 0.00 0.00 0.00 0.00 0.00 0.00 0.00
0.55 0.57 0.53 0.84 1.04 1.03 1.07 0.87 0.83 0.64 0.29 0.07 0.03 0.08 0.23 0.24 0.62 0.91 0.96 0.73 0.47 0.18 0.15 0.12 0.02 0.00 0.00 0.00 0.00 0.00 0.00 0.00 0.00 0.00 0.00 0.00 0.00 0.00 0.00 0.00 0.00 0.00 0.00 0.00
0.78 0.94 0.99 1.21 1.41 1.07 0.62 0.51 0.36 0.23 0.09 0.04 0.07 0.13 0.25 0.39 0.42 0.75 0.85 0.89 0.54 0.16 0.12 0.05 0.00 0.00 0.00 0.00 0.00 0.00 0.00 0.00 0.00 0.00 0.00 0.00 0.00 0.00 0.00 0.00 0.00 0.00 0.00 0.00
1.30 1.07 1.01 0.65 0.68 0.37 0.08 0.03 0.03 0.01 0.02 0.06 0.12 0.21 0.42 0.45 0.42 0.46 0.41 0.37 0.44 0.33 0.07 0.01 0.00 0.00 0.00 0.00 0.00 0.00 0.00 0.00 0.00 0.00 0.00 0.00 0.00 0.00 0.00 0.00 0.00 0.00 0.00 0.00
0.94 0.63 0.43 0.16 0.10 0.04 0.02 0.03 0.03 0.01 0.01 0.07 0.22 0.26 0.44 0.62 0.73 0.47 0.22 0.24 0.17 0.11 0.06 0.04 0.02 0.00 0.00 0.00 0.00 0.00 0.00 0.00 0.00 0.00 0.00 0.00 0.00 0.00 0.00 0.00 0.00 0.00 0.00 0.00
0.70 0.46 0.26 0.13 0.07 0.05 0.05 0.08 0.11 0.10 0.13 0.17 0.25 0.37 0.43 0.61 0.46 0.48 0.22 0.09 0.08 0.11 0.19 0.12 0.05 0.01 0.00 0.00 0.00 0.00 0.00 0.00 0.00 0.00 0.00 0.00 0.00 0.00 0.00 0.00 0.00 0.00 0.00 0.00
0.44 0.25 0.09 0.11 0.10 0.05 0.04 0.06 0.12 0.11 0.22 0.18 0.37 0.39 0.26 0.31 0.39 0.15 0.18 0.14 0.08 0.05 0.02 0.03 0.02 0.02 0.00 0.00 0.00 0.00 0.00 0.00 0.00 0.00 0.00 0.00 0.00 0.00 0.00 0.00 0.00 0.00 0.00 0.00